Погода в Комсомольце

Россия / Удмуртская Республика     57°31′30″N   53°01′54″E
темп.,
°C
ветер,
м/с
пор.,
м/с
влажн.,
%
обл.,
%
осадки,
мм/ч
давл.,
гПа
погр.,
м
9 мая, вс
вс901:00+9ююв24903 0.0 101660
04:00+8ююв23930 0.0 101658
07:00+13ююв36740 0.0 1016209
10:00+18юв45470 0.0 1016992
13:00+21ююв45355 0.0 10152100
16:00+21ююв45342 0.0 10152234
19:00+18юв37495 0.0 1016213
22:00+13юв25625 0.0 101775
10 мая, пн
пн1001:00+12юв3664100 0.0 1017104
04:00+11юв27725 0.0 1019113
07:00+15ююв386092 0.0 1020225
10:00+21ю354058 0.0 10201065
13:00+23ю3332100 0.0 10212574
16:00+22з0239100 0.0 10221004
19:00+18всв1257100 0.0 102225
22:00+15с1165100 0.0 102420
11 мая, вт
вт1101:00+14св2773100 0.0 1025159
04:00+12св2383100 0.0 102660
07:00+15св23749 0.0 1027251
10:00+21всв11515 0.0 1027766
13:00+24ссз233898 0.0 10272563
16:00+21с235292 0.0 1027801
19:00+19св24665 0.0 1028168
22:00+14св22845 0.0 102915
12 мая, ср
ср1201:00+13всв23896 0.0 103055
04:00+11всв229363 0.0 103034
07:00+15всв237597 0.0 1031216
10:00+20в22565 0.0 1031887
13:00+24всв01424 0.0 10301820
16:00+24ссз223723 0.0 10292170
19:00+21ссв365367 0.0 1029225
22:00+16в11605 0.0 102913
13 мая, чт
чт1301:00+15вюв11705 0.0 103012
04:00+13ю11795 0.0 103010
07:00+18юз01640 0.0 1030138
10:00+24юз01440 0.0 1030909
13:00+27зюз013639 0.0 10292301
16:00+26зюз223568 0.0 10281898
19:00+22с1255100 0.0 102833
22:00+20юз1160100 0.0 102814